Location: Bedertsch
(49.8086°N, 14.7184°E)
Time: 06:05:17
(UTC+00:00)

Daily predictions for brighter satellites

Satellite Brightness Start Highest point End
(mag) Time Altitude Azimuth Time Altitude Azimuth Time Altitude Azimuth
Cosmos 968 Rocket 3.7 15:59:15 10° S 16:04:11 50° ESE 16:09:07 10° NNE
Cosmos 2346 Rocket 4.4 15:58:51 10° S 16:04:53 78° E 16:10:58 10° NNE
Cosmos 1464 Rocket 4.5 15:59:05 10° NNW 16:05:16 69° W 16:11:30 10° S
YAOGAN 1 4.2 16:06:21 10° E 16:08:41 14° ENE 16:11:02 10° NNE
H-2A R/B 2.6 16:04:50 10° NNE 16:09:08 42° E 16:13:19 10° S
CZ-2C R/B 4.0 16:05:53 10° ESE 16:10:18 28° ENE 16:14:57 10° N
H-2A R/B 2.4 16:08:57 10° SSE 16:12:55 84° ENE 16:17:05 10° NNW
Cosmos 1953 2.7 16:10:17 10° NNW 16:14:15 70° W 16:18:11 10° S
Cosmos 1626 2.8 16:11:58 10° SSE 16:15:17 32° E 16:18:38 10° NNE
Cosmos 1939 Rocket 3.5 16:11:54 10° SE 16:15:39 35° ENE 16:19:24 10° N
ATLAS 5 CENTAUR R/B 2.8 16:12:55 10° SSE 16:16:02 22° ESE 16:19:26 10° ENE
CZ-4 R/B 2.7 16:18:51 10° ESE 16:21:47 19° ENE 16:24:41 10° NNE
YAOGAN 6 3.8 16:18:45 10° S 16:22:10 46° W 16:25:39 10° NNW
Feng Yun 1-1 Rocket 4.5 16:20:41 10° SE 16:25:49 46° ENE 16:31:04 10° N
Cosmos 1503 Rocket 4.4 16:22:53 10° S 16:27:59 45° ESE 16:33:06 10° NE
NOAA 11 4.2 16:23:29 10° SSE 16:28:59 81° ENE 16:34:32 10° NNW
CREW DRAGON DEMO-1 DEB 2.8 16:26:30 10° W 16:29:23 65° N 16:31:41 15° ENE
Cosmos 2263 Rocket 2.7 16:24:17 10° S 16:29:35 41° ESE 16:34:53 10° NE
Cosmos 2058 Rocket 4.3 16:26:19 10° NNE 16:29:45 21° ENE 16:33:12 10° ESE
CZ-3B R/B 1.9 16:27:59 10° NW 16:29:54 33° NNE 16:32:49 12° E
SMAP 3.3 16:25:21 10° S 16:30:00 76° WSW 16:34:41 10° NNW
SL-16 R/B 3.9 16:25:07 10° NW 16:30:20 38° WSW 16:35:32 10° S
Cosmos 2228 3.4 16:26:44 10° N 16:30:45 39° ENE 16:34:46 10° SE
H-2A R/B 3.0 16:27:59 10° ESE 16:31:57 24° ENE 16:36:00 10° N
Cosmos 1315 Rocket 3.1 16:29:42 10° N 16:33:31 45° ENE 16:37:20 10° SSE
ADEOS Rocket 4.1 16:27:50 10° N 16:33:46 43° WNW 16:39:11 10° SW
Meteor 1-24 Rocket 4.1 16:29:49 10° SSE 16:34:43 37° E 16:39:35 10° NNE
CORIOLIS 4.3 16:29:40 10° SSE 16:35:05 82° WSW 16:40:31 10° NNW
Abrixas rocket 4.0 16:33:09 10° W 16:35:21 23° SSW 16:37:33 10° SSE
NOSS 3-4 (A) 3.6 16:29:36 10° SW 16:35:30 74° NW 16:41:56 10° NE
NOSS 3-4 (C) 3.6 16:29:42 10° SW 16:35:36 75° NW 16:42:02 10° NE
Timation 1 Rocket 4.4 16:29:54 10° SSW 16:35:56 85° WNW 16:42:00 10° NNE
Cosmos 1455 4.3 16:38:07 10° NE 16:38:19 11° NE 16:38:19 11° NE
Cosmos 1300 2.7 16:38:57 10° N 16:42:43 55° ENE 16:46:28 10° SSE
Cosmos 1943 3.1 16:38:41 10° NNW 16:44:24 79° ENE 16:50:04 10° SSE
Cosmos 2279 Rocket 4.0 16:44:02 10° N 16:50:17 61° ENE 16:56:27 10° SSE
ATLAS 2AS CENTAUR R/B 3.2 16:45:09 10° SW 16:53:07 80° NW 17:00:35 12° NE
ARGOS 3.9 16:49:13 10° ESE 16:53:44 29° ENE 16:58:16 10° N
Cosmos 1726 Rocket 3.7 16:49:34 10° N 16:53:48 48° ENE 16:58:03 10° SSE
Cosmos 2082 Rocket 4.2 16:53:27 10° N 16:54:24 10° NNE 16:55:21 10° NNE
Lacrosse 5 2.3 16:50:23 10° WNW 16:55:16 45° NNE 16:58:27 20° E
Helios 1A Rocket 3.8 16:52:10 10° SE 16:55:45 29° ENE 16:59:20 10° N
Cosmos 773 Rocket 3.9 16:51:36 10° NNW 16:56:46 66° ENE 17:01:52 10° SE
Cosmos 1833 Rocket 4.4 16:57:08 10° N 16:59:53 14° NNE 17:00:46 13° NE
Cosmos 1634 Rocket 4.2 16:53:46 10° NNW 17:00:00 78° W 17:06:16 10° S
CZ-2C R/B 4.3 17:01:39 15° ESE 17:01:39 15° ESE 17:03:37 10° SE
Cosmos 2227 4.2 16:57:10 10° SSW 17:02:45 70° ESE 17:07:56 12° NNE
Okean-O 2.9 16:59:22 10° SE 17:03:34 44° ENE 17:07:47 10° N
COSMO-SKYMED 1 2.6 17:02:32 10° NNE 17:06:52 61° ESE 17:11:10 10° S
Cosmos 2344 4.5 17:01:37 10° NW 17:09:35 43° NNE 17:16:36 20° E
Cosmos 2227 Rocket 4.0 17:06:35 10° W 17:11:18 26° NW 17:16:04 10° NNE
Okean O Rocket 3.2 17:07:59 10° SSW 17:12:09 39° W 17:16:20 10° NNW
RESURS DK-1 2.5 17:09:02 10° SW 17:13:11 75° WNW 17:16:12 18° NNE
ERS-2 2.4 17:12:02 28° NE 17:13:30 44° E 17:16:58 10° S
CZ-4B R/B 1.3 17:12:30 12° NNE 17:15:40 87° WNW 17:19:02 10° SSW
Cosmos 1538 Rocket 3.9 17:15:19 10° NNW 17:20:28 61° ENE 17:25:35 10° SE
USA 234 3.4 17:19:06 24° E 17:23:02 57° NNE 17:29:26 10° WNW
CZ-4C R/B 2.8 17:18:54 10° WSW 17:23:59 51° NW 17:28:31 18° NE
Meteor 2-1 Rocket 4.4 17:18:48 10° N 17:24:14 46° ENE 17:29:33 10° SE
Cosmos 1844 Rocket 3.6 17:20:55 10° SSE 17:25:29 27° ESE 17:25:29 27° ESE
PSLV R/B 4.0 17:26:28 28° NE 17:28:27 55° ESE 17:32:35 10° S
CZ-2D R/B 3.8 17:24:56 10° S 17:28:45 60° W 17:32:35 10° NNW
Cosmos 1777 Rocket 4.0 17:25:54 10° S 17:31:03 58° ESE 17:33:47 27° NE
Meteor 2-5 Rocket 4.1 17:25:41 10° SSW 17:31:13 64° WNW 17:36:44 10° N
Cosmos 1354 Rocket 4.3 17:26:02 10° SSW 17:31:20 69° WNW 17:36:16 12° NNE
SL-14 R/B 4.3 17:27:57 10° SSW 17:31:39 44° WNW 17:35:26 10° N
IRS-1C Rocket 4.3 17:28:02 10° S 17:33:17 73° WSW 17:38:35 10° NNW
NOAA 15 4.5 17:29:04 10° SSE 17:34:19 82° ENE 17:39:37 10° NNW
Iridium 4 Rocket 4.2 17:30:06 10° N 17:35:27 36° ENE 17:35:40 35° E
Cosmos 2297 Rocket 4.4 17:32:59 10° WNW 17:36:44 18° NW 17:40:31 10° N
COSMOS 2455 3.1 17:32:48 10° S 17:38:33 48° ESE 17:40:26 36° ENE
ATLAS 3B R/B 4.2 17:33:16 10° NW 17:39:35 38° WSW 17:46:07 10° S
YAOGAN 1 2.6 17:39:52 10° SSE 17:44:12 83° WSW 17:48:34 10° NNW
H-2A R/B 4.2 17:41:09 10° N 17:44:54 26° WNW 17:48:35 10° WSW
Cosmos 1892 Rocket 3.5 17:41:02 10° S 17:45:24 84° W 17:48:30 19° N
CSL-04 Rocket 3.5 17:44:25 10° SSE 17:49:46 72° ENE 17:55:14 10° NNW
CZ-2C R/B 3.9 17:44:45 10° S 17:49:51 54° W 17:55:17 10° NNW
Nadezhda 4 Rocket 3.9 17:45:45 10° S 17:51:58 71° E 17:58:10 10° NNE
CZ-4 R/B 2.2 17:52:26 10° S 17:56:29 52° W 18:00:29 10° NNW
MOS 1 Rocket 3.6 17:52:33 12° N 17:56:36 59° WNW 18:00:48 10° SSW
ATLAS 5 CENTAUR R/B 2.0 17:56:08 10° WSW 18:00:10 56° NW 18:01:05 46° N
Meteor 2-10 Rocket 4.1 17:58:31 10° NNW 18:04:03 60° W 18:09:20 10° S
COSMOS 2406 4.4 18:01:15 10° NNW 18:04:54 27° NNE 18:04:54 27° NNE
NOSS 3-1 (C) 4.1 18:00:21 10° NW 18:07:19 55° NE 18:09:09 46° E
DMSP B5D1-3 4.3 18:05:57 43° NNE 18:07:40 84° ESE 18:12:46 10° SSW
SL-08 RB Rocket 4.3 18:09:15 43° N 18:09:15 43° N 18:12:21 10° N
Cosmos 2058 Rocket 4.0 18:03:42 10° NNW 18:08:02 49° W 18:12:22 10° SSW
H-2A R/B 2.6 18:06:11 10° S 18:11:02 56° W 18:16:03 10° NNW
SJ 16-02 3.0 18:07:03 10° S 18:08:46 23° S 18:08:46 23° S
Cosmos 2263 Rocket 3.3 18:08:11 10° WSW 18:13:32 41° NW 18:17:05 20° N
Okean 1-7 Rocket 3.9 18:10:22 10° SSW 18:14:52 65° WNW 18:16:13 43° NNW
Cosmos 1455 4.4 18:12:17 10° NNW 18:13:19 18° NNW 18:13:19 18° NNW
EXPRESS MD2 4.4 18:09:20 10° WNW 18:16:07 46° SW 18:16:50 42° S
Cosmos 923 Rocket 3.9 18:17:01 10° NNW 18:22:19 86° N 18:22:19 86° N
USA 229 4.0 18:15:42 10° NW 18:22:39 51° NE 18:23:08 50° NE
USA 229 DEB 4.0 18:15:42 10° NW 18:22:40 51° NE 18:23:09 50° NE
Cosmos 1818 4.4 18:21:47 10° SSW 18:25:19 39° S 18:25:19 39° S
USA 267 3.3 18:29:51 58° SE 18:29:51 58° SE 18:36:17 10° SW
Cosmos 1680 Rocket 4.0 18:25:42 10° NNW 18:29:33 49° NNW 18:29:33 49° NNW
ARGOS 3.9 18:28:32 10° S 18:33:45 52° W 18:39:00 10° NNW
Meteor 1-21 Rocket 4.2 18:32:32 10° SSW 18:38:04 74° WNW 18:38:12 74° WNW
NOSS 3-1 (A) 4.1 18:31:04 10° NW 18:38:03 54° NE 18:38:03 54° NE
Lacrosse 5 2.3 18:33:28 10° WNW 18:37:41 58° W 18:37:41 58° W
USA 281 4.0 18:42:05 38° NNE 18:42:05 38° NNE 18:46:26 10° NNW
Cosmos 2082 Rocket 4.1 18:35:45 10° NNW 18:37:45 19° N 18:37:45 19° N
CZ-2C R/B 3.5 18:43:09 42° SSW 18:43:09 42° SSW 18:46:45 10° SSW
ATLAS 2AS CENTAUR R/B 4.1 18:38:03 10° W 18:45:14 36° NNW 18:48:02 28° NNE
Cosmos 1833 Rocket 4.2 18:40:01 10° NNW 18:42:30 25° N 18:42:30 25° N
USA 234 3.3 19:06:27 71° WSW 19:06:27 71° WSW 19:12:32 10° WNW
Cosmos 1844 Rocket 3.8 19:03:27 10° SW 19:07:13 40° WSW 19:07:13 40° WSW
CZ-4C R/B 4.0 19:09:11 10° WNW 19:13:43 26° NNW 19:13:43 26° NNW
COSMOS 2455 4.0 19:18:54 10° WSW 19:23:38 40° WNW 19:23:38 40° WNW
Cosmos 2344 4.2 19:16:05 10° NW 19:25:16 85° SW 19:26:41 73° SSE
